Location: Brachbach
(49.1847°N, 9.7240°E)
Time: 14:42:06
(UTC+00:00)

CZ-2C R/B - Pass Details

Date: 11 August 2024
Orbit: 782 x 869 km, 98.3° (Epoch: 15 September)

Event Time Altitude Azimuth Distance (km) Brightness Sun altitude
Exits shadow 00:30:24 25° 128° (SE) 1,640 4.0 -24.1°
Maximum altitude 00:33:17 48° 68° (ENE) 1,093 3.5 -24.0°
Drops below altitude 10° 00:38:30 10° 355° (N) 2,454 6.0 -23.7°
Sets 00:40:54 0° 350° (N) 3,378 6.8 -23.6°
